Voltar ao catálogo

STARLINK-35826

AtivoComunicaçõesVLEO
NORAD 66375·PAYLOAD·🇺🇸 United States

Lançado Nov 6, 2025 de Vandenberg Space Force Base

Loading…

Próximas Passagens (próximas 24 horas)

TLE

AtualizadoSource: CelesTrak SupGP

Época: Sep 15, 2026, 03:29 UTC

1 66375C 25254AD  26258.14562500 -.00026201  00000+0 -77386-3 0  2585
2 66375  53.1593  68.4431 0001264  76.4430  82.0852 15.34413951    10

Acompanhe STARLINK-35826 em tempo real com AllMySat

Download on the App Store